User: anonymous   Login
Location: Vancouver
(49.2500°N, 123.1330°W)
Time: 07:58:03
(UTC-08:00)
Language:

JAS-1B - Orbit

View from above orbital plane
View from above orbital plane
View from above satellite
View from above satellite

Ground track
Ground track

The orbit data is extracted from the following two-line orbital elements,

1 20480U 90013C   17019.50828579 -.00000041  00000-0 -18704-4 0  9990
2 20480  99.0277 180.6718 0540376   7.9507 352.9746 12.83413733262645
Epoch (UTC): 19 January 2017 12:11:55
Eccentricity: 0.0540376
inclination: 99.0277°
perigee height: 911 km
apogee height: 1744 km
right ascension of ascending node: 180.6718°
argument of perigee: 7.9507°
revolutions per day: 12.83413733
mean anomaly at epoch: 352.9746°
orbit number at epoch: 26264

The dashed part of the orbit path shows where the satellite is in the earth's shadow,  

DLR